Theta_e
292 292 292 292 292 292 292 292 292 292 292 291 291 291 290 290 289 289 289 289 289 289 289 289 289 289 288 288 287 287 287 287 286 286 286 285 285 285 285 285 285 284
292 292 292 292 292 291 291 291 291 291 291 291 290 290 290 290 289 289 289 289 289 289 289 289 288 288 288 287 287 287 286 286 286 285 285 285 285 285 285 285 284 284
292 292 292 291 291 291 291 291 291 291 290 290 290 290 290 289 289 289 289 289 289 289 288 288 288 288 287 287 286 286 286 286 285 285 285 285 285 285 285 285 284 284
292 292 291 291 291 291 290 290 290 290 290 290 290 289 289 289 289 289 289 289 289 288 288 288 288 287 287 287 286 286 285 285 285 285 285 285 285 285 285 284 284 283
292 291 291 290 290 290 290 290 290 290 290 289 289 289 289 288 288 288 289 288 288 288 288 287 287 287 287 286 285 285 285 285 285 285 285 285 285 284 283 283 283 282
292 291 290 290 290 290 290 290 290 289 289 289 289 288 288 288 288 288 288 288 288 287 287 287 287 286 286 285 285 285 285 285 285 285 285 285 284 283 283 282 282 282
291 291 290 290 290 289 289 289 289 289 289 289 288 288 288 288 288 288 288 288 287 287 287 287 286 286 285 285 285 285 285 285 285 284 284 284 284 283 283 282 282 281
291 290 290 290 289 289 289 289 289 289 289 288 288 288 288 288 288 288 288 287 287 287 286 286 286 285 285 284 284 285 284 284 284 284 284 283 283 283 283 282 282 281
291 290 289 289 289 289 289 289 289 288 288 288 288 288 288 288 288 288 287 287 287 286 286 286 285 285 284 284 284 284 284 284 284 284 283 283 283 283 282 282 281 280
291 290 289 289 289 289 289 289 288 288 288 288 288 288 288 288 288 287 287 286 286 286 286 285 285 284 284 284 284 284 284 283 283 283 283 283 283 283 283 282 281 280
290 290 289 288 288 288 288 288 288 288 288 288 288 288 288 288 287 287 287 286 286 286 285 285 284 284 284 284 283 283 283 283 283 283 283 283 283 283 282 281 280 278
290 289 289 288 288 288 288 288 288 288 288 288 288 288 288 287 287 287 286 286 286 285 285 285 284 284 283 283 283 283 283 283 282 282 282 282 282 282 281 280 278 277
290 289 288 288 288 288 288 288 288 288 288 288 288 288 287 287 287 287 286 286 286 285 285 284 284 283 283 283 283 283 282 282 282 282 282 282 282 281 281 279 277 276
289 289 288 287 288 288 288 288 288 288 288 288 288 287 287 287 287 286 286 286 285 285 284 284 283 283 283 283 282 282 282 281 281 282 282 282 282 281 280 278 276 275
289 288 287 287 288 288 288 288 288 288 288 288 288 287 287 287 286 286 286 285 285 284 284 283 283 283 283 282 282 281 281 281 281 281 282 281 281 279 278 276 275 274
288 288 287 287 287 287 287 288 288 288 288 288 287 287 287 287 286 286 285 285 285 284 283 283 283 283 282 282 281 281 280 280 281 281 281 280 278 277 276 275 274 273
288 287 287 287 287 287 287 288 288 288 288 288 287 287 287 286 286 286 285 285 284 284 283 283 282 282 282 281 281 280 280 280 280 279 279 278 276 275 274 274 274 274
288 287 287 287 287 287 288 288 288 288 288 287 287 287 286 286 286 285 285 285 284 283 283 282 282 282 281 281 280 280 280 279 279 278 278 277 275 274 274 273 273 274
287 287 287 287 287 287 288 288 288 288 287 287 287 286 286 286 285 285 285 284 283 283 282 282 282 281 281 280 280 280 280 279 278 277 276 276 275 274 274 273 273 273
287 287 287 287 287 287 288 288 288 287 287 287 286 286 286 285 285 285 284 284 283 282 282 281 281 280 280 280 280 280 279 279 278 277 275 275 274 274 274 274 273 273
287 287 287 287 287 287 288 288 287 287 287 286 286 286 285 285 285 284 284 283 282 282 281 281 280 280 280 279 279 279 279 279 278 277 275 275 274 274 274 274 274 274
286 287 287 287 287 287 287 287 287 287 286 286 285 285 285 284 284 284 284 283 282 281 281 281 280 279 279 279 279 279 279 279 278 276 274 274 274 274 274 274 274 275
286 287 287 287 287 287 287 287 287 286 286 285 285 284 284 284 284 284 283 282 281 281 280 280 279 279 279 279 279 279 279 278 276 274 274 274 274 274 274 274 275 275
286 287 287 287 287 287 287 287 286 286 285 284 284 283 283 283 283 283 282 282 281 280 280 280 279 279 279 279 279 279 278 277 275 274 274 274 274 274 274 275 275 275
286 287 287 287 287 287 287 287 286 285 284 283 283 282 282 283 283 283 282 281 280 280 279 279 279 278 278 278 279 278 277 275 274 274 274 274 274 274 275 275 275 274
286 286 287 287 287 287 287 286 286 285 284 283 282 282 282 282 282 282 281 280 280 279 279 278 278 278 278 278 278 277 276 274 273 274 274 274 274 274 274 274 274 273
Wind_Speed
43 42 40 38 35 33 31 29 27 25 23 23 22 21 21 21 22 22 23 24 25 26 28 30 32 34 35 36 35 35 36 35 35 35 35 36 36 37 37 37 37 37
44 43 41 39 36 34 31 29 26 25 24 23 22 21 21 22 22 23 23 24 26 27 29 31 32 33 34 34 34 34 34 34 34 34 35 37 36 37 38 37 37 37
45 44 42 39 36 34 31 29 27 25 24 23 22 22 22 22 22 23 24 25 27 28 30 31 32 32 33 33 33 33 33 33 34 34 35 37 37 37 37 37 37 36
46 44 42 38 36 34 31 29 27 26 24 23 23 23 23 23 22 23 24 26 28 29 30 31 31 32 32 31 31 32 32 32 33 34 36 37 37 38 37 37 38 37
46 44 41 38 36 34 31 29 27 26 24 24 24 23 23 23 23 24 25 27 28 29 29 30 30 31 31 30 30 30 31 32 33 34 36 37 37 37 37 38 38 38
46 44 42 39 37 34 31 30 28 26 25 24 24 24 23 23 23 25 26 27 28 28 28 29 30 30 30 30 30 30 31 32 33 34 36 38 39 38 38 38 39 40
47 45 42 39 37 34 32 30 28 26 25 25 24 24 23 23 24 26 26 27 27 27 28 29 29 29 29 29 30 31 31 32 34 35 37 39 40 40 39 39 40 41
48 45 43 40 37 35 33 30 29 27 26 25 24 23 23 24 25 26 26 26 27 27 28 28 29 29 29 29 30 30 32 33 34 36 38 39 40 41 40 40 41 42
48 46 43 40 37 35 33 31 29 27 26 25 23 23 23 25 25 25 26 26 26 27 28 28 28 28 29 29 30 31 32 34 35 36 38 39 40 40 41 41 42 42
49 47 43 40 38 36 33 31 29 27 26 24 22 23 24 25 25 25 25 26 26 26 27 28 28 28 29 29 30 32 33 34 36 37 38 40 40 41 41 42 42 43
50 47 44 41 38 36 33 31 29 27 25 23 22 23 24 24 24 25 25 25 25 26 26 27 28 28 29 29 30 32 34 35 36 38 39 40 41 42 42 42 42 43
50 47 44 41 38 36 33 31 29 26 24 23 22 24 24 24 24 24 24 24 25 25 26 27 28 28 29 30 31 33 35 36 37 38 40 41 41 41 41 41 41 41
51 47 43 41 38 36 33 30 28 25 23 22 23 24 23 23 23 23 24 24 24 25 26 27 27 28 29 30 32 34 35 36 37 38 40 41 42 42 41 42 42 42
50 46 43 41 38 35 32 30 27 25 23 23 24 24 23 22 23 23 23 23 24 25 25 26 27 28 29 31 32 34 35 36 37 38 40 41 42 43 42 43 43 43
49 46 44 41 38 35 32 29 26 24 23 23 24 23 22 22 22 22 23 23 23 24 25 26 27 28 29 31 32 33 34 36 37 38 39 41 42 43 43 42 43 43
49 47 44 41 38 34 32 29 26 24 24 24 24 22 21 21 22 22 22 22 23 24 24 25 27 28 29 30 31 32 34 36 37 38 38 39 40 42 42 42 41 40
49 47 44 41 37 34 31 28 25 24 24 24 23 21 21 21 21 21 21 22 23 24 24 25 26 27 28 29 30 31 33 34 35 36 37 37 38 39 39 40 39 38
49 46 43 40 37 34 30 27 25 25 24 24 22 21 20 20 20 20 21 22 23 24 24 25 25 26 27 29 30 30 31 32 33 34 35 36 36 36 36 37 38 39
49 46 43 40 36 33 30 27 26 25 24 23 21 20 20 19 19 19 20 21 23 24 24 24 24 25 27 28 29 30 30 30 31 33 33 34 35 35 36 36 37 40
48 46 42 39 35 32 29 27 26 25 23 22 20 20 19 18 18 19 19 21 22 23 24 24 23 24 26 27 28 29 29 29 31 32 32 34 35 36 37 37 36 40
48 45 42 38 34 31 29 27 26 24 22 21 20 19 19 17 17 18 19 21 22 23 24 23 22 23 25 27 27 27 28 29 30 32 33 35 37 38 40 41 40 42
48 44 41 37 33 31 28 26 24 22 21 20 20 19 18 17 16 17 19 21 21 22 24 23 22 22 24 25 25 25 27 29 30 32 33 36 38 40 43 46 46 45
47 43 39 36 32 29 27 24 22 21 20 20 19 18 17 16 16 17 19 21 21 22 23 23 22 22 22 24 24 24 26 28 30 32 34 36 40 41 43 46 46 42
46 42 38 35 31 28 25 23 22 21 20 19 18 16 16 15 15 17 19 21 21 21 22 23 23 22 22 23 23 24 25 26 29 32 35 38 41 42 42 42 43 40
44 40 37 33 29 26 24 23 22 20 19 18 17 15 15 15 15 17 19 20 21 20 21 22 23 23 22 22 23 23 23 25 28 32 36 39 40 42 43 42 42 42
41 37 33 30 27 25 23 22 21 20 19 17 15 14 15 14 15 18 19 20 20 19 20 21 22 23 22 22 23 23 22 23 26 30 35 38 40 41 44 46 46 45
Wind_Direction
230 230 231 232 233 235 236 238 240 243 247 250 255 259 264 270 274 279 284 287 291 293 296 300 302 303 305 306 307 306 306 306 306 306 305 304 304 303 303 303 302 300
229 229 229 230 232 234 235 237 239 242 246 249 254 260 264 270 274 279 285 287 291 294 298 301 303 305 307 308 308 307 306 306 305 305 304 304 304 304 304 304 302 299
229 229 229 230 231 233 234 236 238 241 245 249 255 260 265 270 275 280 285 288 291 296 299 302 305 308 309 308 307 305 304 304 304 304 304 304 305 305 304 304 301 298
228 228 228 229 230 232 232 234 237 240 244 249 255 260 265 270 276 281 285 288 293 297 301 304 307 309 308 306 304 303 303 303 304 305 306 307 307 307 306 305 302 298
228 227 227 227 229 230 231 233 236 240 244 249 255 260 266 272 278 282 286 290 294 299 303 306 308 308 306 305 303 303 305 306 307 309 309 309 309 307 306 304 301 297
227 226 226 226 228 229 230 232 235 239 243 249 255 261 268 275 280 284 287 292 297 302 305 307 308 306 305 305 305 307 308 309 311 311 310 310 309 307 305 303 300 297
226 225 225 225 226 227 229 231 234 238 243 249 255 263 271 277 281 284 289 295 299 303 306 308 307 306 306 306 307 309 310 311 312 311 310 310 309 309 308 305 301 297
226 225 224 224 225 225 227 230 233 237 242 249 256 265 272 277 280 285 291 297 301 305 307 308 307 306 306 306 308 310 311 311 311 310 310 310 310 310 309 307 303 299
225 224 223 223 223 224 226 228 231 236 242 249 258 266 271 276 280 287 294 298 302 306 307 307 305 305 305 307 310 311 310 311 310 311 311 311 311 311 310 307 303 299
224 223 222 221 222 223 224 227 231 236 243 250 259 266 270 276 282 289 294 298 303 306 306 306 304 304 306 309 311 310 310 311 312 313 314 313 313 312 311 309 304 301
223 222 221 220 220 221 223 226 231 237 243 252 259 265 270 276 283 290 294 299 304 305 305 304 304 305 308 310 311 311 312 313 314 316 316 315 314 313 311 309 305 303
222 220 219 219 219 220 222 226 231 238 245 253 260 265 271 277 284 290 296 300 304 304 304 303 304 307 309 311 312 313 314 316 317 318 317 315 314 312 311 308 304 302
220 219 218 217 218 219 222 226 232 239 247 254 260 265 271 278 285 291 296 301 303 304 303 304 306 308 311 313 314 315 317 318 318 318 316 315 313 311 310 308 305 304
219 217 216 216 216 218 222 227 233 240 248 255 260 266 272 279 287 292 296 300 303 303 303 305 307 310 312 315 316 317 319 318 318 317 316 314 313 311 310 309 308 307
217 216 215 215 216 218 222 227 234 241 248 255 260 266 273 281 287 292 296 300 302 302 303 306 309 312 314 316 317 319 319 318 317 316 315 314 312 311 310 309 309 307
215 215 214 214 215 218 222 227 234 241 248 254 259 266 273 281 286 291 295 300 301 302 304 307 310 313 315 316 319 320 319 318 316 315 314 312 310 309 310 310 309 305
214 214 213 213 215 218 222 228 234 241 247 252 258 266 273 279 285 290 295 300 301 303 305 308 311 313 315 317 320 320 318 316 315 313 312 309 307 308 308 308 308 304
214 212 211 212 214 218 223 228 234 240 246 252 258 265 272 278 284 290 296 300 301 303 305 308 312 314 315 318 319 318 317 315 312 311 309 308 308 308 308 307 308 308
212 211 211 212 214 219 223 228 235 240 245 252 258 264 270 277 283 290 296 300 301 303 305 309 313 315 316 318 318 318 316 314 311 309 308 309 310 312 313 311 309 310
211 210 210 212 215 219 224 229 236 241 245 252 257 263 269 275 282 289 296 299 300 303 305 310 314 315 316 317 318 317 315 313 311 310 311 315 317 316 316 313 308 307
210 209 210 212 215 220 225 231 236 241 246 252 257 263 268 274 281 289 295 298 301 303 306 310 315 316 317 318 317 316 314 313 314 315 318 320 320 318 315 314 314 310
208 208 209 212 215 220 226 231 237 242 247 252 257 261 267 273 281 290 296 298 301 304 306 310 316 318 317 316 316 315 315 316 319 322 323 321 320 319 316 316 318 316
207 207 209 212 216 221 227 232 238 243 247 251 256 261 267 274 283 292 296 299 301 304 307 311 316 318 317 315 315 317 320 323 325 324 323 322 321 320 317 315 315 313
206 207 210 213 216 221 227 233 239 242 246 251 255 261 268 276 287 294 297 299 302 305 308 312 315 318 317 316 318 323 327 329 328 325 323 324 322 319 316 314 310 307
206 208 210 213 216 221 227 232 237 240 245 249 254 262 270 279 291 296 297 299 302 306 310 314 317 318 320 321 324 331 335 332 328 326 324 322 319 316 315 312 309 307
206 208 210 213 217 222 227 231 235 238 242 247 254 262 271 283 294 297 298 300 302 307 313 316 317 318 322 327 331 337 340 334 328 326 323 319 317 315 314 312 311 312